Location: Unspecified
(0.0000°N, 0.0000°E)
Time: 09:57:10
(UTC+00:00)

deb Explorer IX - Pass Details

Date: 17 December 2018
Orbit: 538 x 1115 km, 38.8° (Epoch: 17 January)

Event Time Altitude Azimuth Distance (km) Brightness Sun altitude
Rises 02:26:26 0° 299° (WNW) 3,094 - -46.6°
Reaches altitude 10° 02:28:44 10° 294° (WNW) 2,260 - -46.2°
Maximum altitude 02:33:54 49° 219° (SW) 1,072 - -45.1°
Exits shadow 02:38:33 17° 150° (SSE) 2,156 ? -44.1°
Drops below altitude 10° 02:40:02 10° 146° (SE) 2,664 ? -43.8°
Sets 02:42:57 0° 140° (SE) 3,700 ? -43.2°
